Regional Weather Roundup
Issued by NWS

Home | Current Version | Previous Version | Text Only | Print | Product List | Glossary On
Versions: 1 2 3 4 5 6 7 8 9 10 11 12 13 14 15 16 17 18 19 20 21 22 23 24 25 26 27 28 29 30 31 32 33 34 35 36 37 38 39 40 41 42 43 44 45 46 47 48 49 50
000
ASCA42 TJSJ 222011
RWRPR
PUERTO RICO/U.S. VIRGIN ISLANDS HOURLY WEATHER ROUNDUP
NATIONAL WEATHER SERVICE SAN JUAN PR
400 PM AST MON SEP 22 2014

PRZ001-004-222100-
PUERTO RICO

CITY           SKY/WX    TMP DP  RH WIND       PRES   REMARKS
SAN JUAN LMM   MOSUNNY   88  79  74 NE12      29.88F HX 102
MAYAGUEZ       PTSUNNY   86  75  70 SE8       29.90  HX  95
AGUADILLA      PTSUNNY   88  75  66 NE18      29.90F HX  97
CEIBA          MOSUNNY   84  75  74 NE10      29.90F HX  92
$$

PRZ006-007-222100-
U.S. VIRGIN ISLANDS

CITY           SKY/WX    TMP DP  RH WIND       PRES   REMARKS
CHRISTIANSTED  LGT RAIN  86  77  74 E13       29.89S HX  97
$$

HOURLY WEATHER ROUNDUP FOR THE NEWS MEDIA

CITY           SKY/WX    TMP DP  RH WIND       PRES   REMARKS
MIAMI          PTSUNNY   86  75  69 E8        29.95F HX  95
ORLANDO        RAIN      75  71  87 N5        29.98R FOG
NEW YORK       MOSUNNY   72  46  39 W18       29.93R
NEWARK         MOSUNNY   70  46  42 W20G29    29.94R
CHICAGO        SUNNY     62  40  44 VRB3      30.24F
HARTFORD       SUNNY     73  45  36 W16G23    29.81R
BOSTON         MOSUNNY   70  43  37 W20G28    29.80R
DALLAS         MOSUNNY   87  49  26 NE6G18    30.14F
PHILADELPHIA   PTSUNNY   69  47  45 NW15      29.99R



USA.gov is the U.S. government's official web portal to all federal, state and local government web resources and services.